SAS7MH KJFK-ENGM

Flight info

Callsign SAS7MH
Flight time N/A
Altitude 35000
Route GREKI DCT JUDDS DCT MARTN DCT PQI DCT TAFFY N849A ENNSO/M078F370 DCT 5830N05000W 61N040W 62N030W 63N020W 62N010W DCT VALDI/N0438F370 DCT ADOPI
Aircraft A21N/M-SDE2E3FGHIRWXY/LB1

Departure

Time 2026-04-30 15:08
Airport John F. Kennedy International Airport (KJFK)

Arrival

Time N/A
Airport Oslo-Gardermoen International Airport (ENGM)
Time Latitude Longitude Altitude Speed Heading
2026-04-30 14:44 40.63844 -73.78043 21 ft 0 kts 263°
2026-04-30 14:59 40.63846 -73.78026 23 ft 4 kts 261°
2026-04-30 15:00 40.63878 -73.77935 22 ft 5 kts 199°
2026-04-30 15:00 40.63887 -73.77932 24 ft 2 kts 174°
2026-04-30 15:01 40.63881 -73.77931 22 ft 2 kts 174°
2026-04-30 15:02 40.63844 -73.77925 21 ft 11 kts 177°
2026-04-30 15:02 40.63746 -73.77910 21 ft 15 kts 172°
2026-04-30 15:03 40.63662 -73.77706 23 ft 19 kts 30°
2026-04-30 15:03 40.63896 -73.77524 22 ft 20 kts 31°
2026-04-30 15:04 40.64148 -73.77325 21 ft 22 kts 31°
2026-04-30 15:04 40.64534 -73.76970 21 ft 25 kts 26°
2026-04-30 15:05 40.65008 -73.76598 21 ft 28 kts 31°
2026-04-30 15:06 40.65083 -73.76438 21 ft 0 kts 122°
2026-04-30 15:06 40.65022 -73.76369 21 ft 14 kts 181°
2026-04-30 15:07 40.64665 -73.76635 23 ft 87 kts 210°
2026-04-30 15:07 40.62828 -73.78063 577 ft 182 kts 210°
2026-04-30 15:08 40.60542 -73.79794 2083 ft 203 kts 217°
2026-04-30 15:08 40.60752 -73.85239 3543 ft 253 kts 324°
2026-04-30 15:09 40.64186 -73.85442 5115 ft 269 kts 27°
2026-04-30 15:09 40.67461 -73.82782 6607 ft 284 kts 29°
2026-04-30 15:10 40.71011 -73.80264 8120 ft 295 kts 25°
2026-04-30 15:11 40.79261 -73.77566 10650 ft 333 kts
2026-04-30 15:11 40.84098 -73.76271 11256 ft 374 kts
2026-04-30 15:12 40.92070 -73.74072 12975 ft 398 kts
2026-04-30 15:13 40.97561 -73.72557 14247 ft 406 kts
2026-04-30 15:14 41.08821 -73.69444 16459 ft 422 kts
2026-04-30 15:14 41.17588 -73.67010 18013 ft 434 kts
2026-04-30 15:16 41.32621 -73.62828 20296 ft 450 kts
2026-04-30 15:17 41.45052 -73.59347 22102 ft 462 kts
2026-04-30 15:18 41.61002 -73.54863 24244 ft 476 kts
2026-04-30 15:19 41.70815 -73.52094 25451 ft 483 kts
2026-04-30 17:39 56.24038 -55.50732 35116 ft 495 kts 50°
2026-04-30 17:42 56.45880 -55.02653 35114 ft 497 kts 50°
2026-04-30 17:43 56.56058 -54.79985 35107 ft 497 kts 50°
2026-04-30 17:44 56.69057 -54.50653 35107 ft 498 kts 50°
2026-04-30 17:47 56.88494 -54.06117 35102 ft 499 kts 51°
2026-04-30 17:48 57.03502 -53.71141 35098 ft 499 kts 51°
2026-04-30 17:50 57.20574 -53.30733 35096 ft 501 kts 51°
2026-04-30 17:52 57.33312 -53.00127 35092 ft 501 kts 51°
2026-04-30 17:54 57.52335 -52.53730 35082 ft 504 kts 52°
2026-04-30 17:56 57.69192 -52.11812 35071 ft 505 kts 52°
2026-04-30 17:58 57.81749 -51.80107 35064 ft 507 kts 52°
2026-04-30 18:00 57.98424 -51.37334 35060 ft 508 kts 53°
2026-04-30 18:01 58.08795 -51.10290 35056 ft 509 kts 53°
2026-04-30 18:02 58.21192 -50.77663 35046 ft 510 kts 53°
2026-04-30 18:04 58.33556 -50.44676 35031 ft 510 kts 53°
2026-04-30 18:06 58.49848 -50.00378 35028 ft 511 kts 56°
2026-04-30 18:08 58.62469 -49.59270 35030 ft 513 kts 59°
2026-04-30 18:10 58.76791 -49.11754 35026 ft 514 kts 59°
2026-04-30 18:11 58.89225 -48.69801 35025 ft 516 kts 59°
2026-04-30 18:13 58.98019 -48.39562 35023 ft 516 kts 60°
2026-04-30 18:14 59.06780 -48.09054 35026 ft 517 kts 60°
2026-04-30 18:15 59.17178 -47.72301 35025 ft 518 kts 60°
2026-04-30 18:16 59.24072 -47.47618 35025 ft 518 kts 60°
2026-04-30 18:17 59.27506 -47.35204 35024 ft 518 kts 60°
2026-04-30 18:18 59.32583 -47.16617 35028 ft 518 kts 61°
2026-04-30 18:18 59.35958 -47.04149 35025 ft 518 kts 60°
2026-04-30 18:19 59.39377 -46.91676 35025 ft 519 kts 60°
2026-04-30 18:19 59.42761 -46.79156 35027 ft 519 kts 61°
2026-04-30 18:20 59.46128 -46.66591 35028 ft 519 kts 61°
2026-04-30 18:20 59.49475 -46.54005 35031 ft 520 kts 61°
2026-04-30 18:21 59.52832 -46.41369 35028 ft 520 kts 61°
2026-04-30 18:21 59.56160 -46.28712 35031 ft 520 kts 61°
2026-04-30 18:22 59.59499 -46.16051 35029 ft 520 kts 61°
2026-04-30 18:22 59.64525 -45.96994 35027 ft 521 kts 61°
2026-04-30 18:23 59.67811 -45.84305 35029 ft 521 kts 62°
2026-04-30 18:23 59.71098 -45.71545 35029 ft 521 kts 62°
2026-04-30 18:24 59.76017 -45.52291 35030 ft 522 kts 62°
2026-04-30 18:25 59.79241 -45.39383 35033 ft 522 kts 62°
2026-04-30 18:25 59.84091 -45.20006 35026 ft 522 kts 62°
2026-04-30 18:26 59.88948 -45.00623 35024 ft 522 kts 62°
2026-04-30 18:27 59.93734 -44.81226 35021 ft 522 kts 62°
2026-04-30 18:28 59.98567 -44.61728 35019 ft 521 kts 62°
2026-04-30 18:28 60.03349 -44.42222 34992 ft 520 kts 62°
2026-04-30 18:29 60.09092 -44.18326 34981 ft 520 kts 63°
2026-04-30 18:30 60.15299 -43.92274 34934 ft 519 kts 63°
2026-04-30 18:31 60.19924 -43.72637 34893 ft 517 kts 63°
2026-04-30 18:32 60.24501 -43.53043 34905 ft 516 kts 63°
2026-04-30 18:33 60.29039 -43.33405 34901 ft 515 kts 63°
2026-04-30 18:33 60.33562 -43.13693 34903 ft 516 kts 63°
2026-04-30 18:34 60.38058 -42.93885 34899 ft 517 kts 63°
2026-04-30 18:35 60.41041 -42.80634 34902 ft 518 kts 64°
2026-04-30 18:35 60.43981 -42.67417 34908 ft 518 kts 64°
2026-04-30 18:36 60.48434 -42.47387 34906 ft 519 kts 64°
2026-04-30 18:37 60.52856 -42.27270 34913 ft 520 kts 64°
2026-04-30 18:37 60.55781 -42.13820 34915 ft 521 kts 64°
2026-04-30 18:38 60.58705 -42.00438 34915 ft 521 kts 64°
2026-04-30 18:38 60.61633 -41.86912 34915 ft 521 kts 64°
2026-04-30 18:39 60.64532 -41.73371 34912 ft 522 kts 64°
2026-04-30 18:39 60.67421 -41.59789 34917 ft 522 kts 64°
2026-04-30 18:40 60.70300 -41.46156 34916 ft 522 kts 64°
2026-04-30 18:40 60.73136 -41.32480 34909 ft 523 kts 65°
2026-04-30 18:41 60.75946 -41.18856 34906 ft 523 kts 64°
2026-04-30 18:41 60.78791 -41.05127 34904 ft 523 kts 65°
2026-04-30 18:42 60.81606 -40.91393 34901 ft 523 kts 65°
2026-04-30 18:42 60.85806 -40.70784 34904 ft 524 kts 65°
2026-04-30 18:45 61.00757 -39.94198 34888 ft 527 kts 72°
2026-04-30 18:46 61.02787 -39.79664 34892 ft 527 kts 72°
2026-04-30 18:46 61.04829 -39.65105 34893 ft 527 kts 72°
2026-04-30 18:47 61.06841 -39.50654 34883 ft 527 kts 72°
2026-04-30 18:47 61.08831 -39.36094 34895 ft 527 kts 73°
2026-04-30 18:48 61.10802 -39.21474 34891 ft 527 kts 73°
2026-04-30 18:48 61.12751 -39.06861 34883 ft 527 kts 73°
2026-04-30 18:49 61.14682 -38.92259 34880 ft 526 kts 73°
2026-04-30 18:49 61.16590 -38.77703 34885 ft 526 kts 73°
2026-04-30 18:50 61.18491 -38.63064 34894 ft 526 kts 73°
2026-04-30 18:50 61.20375 -38.48411 34891 ft 525 kts 73°
2026-04-30 18:51 61.22235 -38.33738 34893 ft 525 kts 74°
2026-04-30 18:51 61.24068 -38.19070 34892 ft 525 kts 73°
2026-04-30 18:52 61.25921 -38.04390 34885 ft 525 kts 73°
2026-04-30 18:52 61.27743 -37.89717 34886 ft 524 kts 74°
2026-04-30 18:53 61.29531 -37.75105 34883 ft 524 kts 74°
2026-04-30 18:53 61.31318 -37.60313 34882 ft 524 kts 74°
2026-04-30 18:54 61.33069 -37.45698 34886 ft 524 kts 74°
2026-04-30 18:54 61.34819 -37.30964 34885 ft 524 kts 74°
2026-04-30 18:55 61.36558 -37.16190 34884 ft 524 kts 74°
2026-04-30 18:55 61.39125 -36.94113 34884 ft 524 kts 75°
2026-04-30 18:56 61.41663 -36.71915 34885 ft 523 kts 75°
2026-04-30 18:57 61.44131 -36.49681 34883 ft 523 kts 75°
2026-04-30 18:57 61.45783 -36.34864 34880 ft 523 kts 75°
2026-04-30 18:58 61.48243 -36.12584 34876 ft 523 kts 75°
2026-04-30 18:59 61.50634 -35.90368 34878 ft 523 kts 75°
2026-04-30 19:00 61.53750 -35.60564 34884 ft 523 kts 76°
2026-04-30 19:01 61.56821 -35.30801 34881 ft 523 kts 76°
2026-04-30 19:02 61.59105 -35.08389 34876 ft 523 kts 76°
2026-04-30 19:03 61.62075 -34.78456 34880 ft 523 kts 76°
2026-04-30 19:04 61.64968 -34.48568 34876 ft 523 kts 76°
2026-04-30 19:05 61.67791 -34.18564 34875 ft 522 kts 77°
2026-04-30 19:06 61.70509 -33.88477 34877 ft 522 kts 77°
2026-04-30 19:06 61.72542 -33.66024 34875 ft 521 kts 77°
2026-04-30 19:07 61.74568 -33.43462 34876 ft 521 kts 77°
2026-04-30 19:08 61.77152 -33.13351 34875 ft 521 kts 78°
2026-04-30 19:09 61.79055 -32.90731 34876 ft 520 kts 78°
2026-04-30 19:09 61.80286 -32.75770 34876 ft 520 kts 78°
2026-04-30 19:10 61.82700 -32.45564 34874 ft 519 kts 78°
2026-04-30 19:11 61.84479 -32.22938 34873 ft 519 kts 78°
2026-04-30 19:12 61.85638 -32.07931 34873 ft 519 kts 79°
2026-04-30 19:12 61.86783 -31.92811 34875 ft 519 kts 79°
2026-04-30 19:13 61.89035 -31.62606 34867 ft 519 kts 79°
2026-04-30 19:14 61.90121 -31.47489 34871 ft 518 kts 79°
2026-04-30 19:14 61.91234 -31.32371 34871 ft 518 kts 79°